Vorticity
8 9 10 12 6 7 8 7 5 6 4 5 6 2 4 4 5 8 12 15 14 9
9 11 11 5 8 7 6 4 4 5 6 3 3 4 4 7 13 14 13 10 6 6
11 8 5 8 8 4 4 7 5 4 4 3 4 4 9 13 14 14 6 3 2 -2
6 4 7 7 4 5 6 4 4 2 4 3 5 10 13 15 9 2 2 1 -2 -0
2 7 6 5 7 4 2 5 1 2 4 5 9 15 16 6 0 3 -2 -1 4 5
7 7 8 7 3 3 2 1 2 4 6 8 18 16 4 1 -1 -1 -1 1 4 4
10 8 7 2 2 1 1 2 5 8 8 19 12 7 3 1 1 -1 2 1 2 5
8 5 1 1 0 1 2 5 9 7 20 9 9 2 -1 -3 -0 3 2 -1 3 6
7 3 0 2 1 3 4 9 7 19 10 8 -1 -2 -0 6 5 2 9 7 7 8
-3 1 2 1 3 4 8 8 19 10 5 -0 1 4 5 6 4 4 7 6 7 37
2 3 1 5 4 8 12 17 9 3 1 1 5 4 2 2 5 6 5 5 39 38
4 2 6 3 9 16 13 7 3 2 3 2 2 2 4 6 5 5 8 40 39 18
3 6 3 10 21 7 7 4 3 5 -1 2 2 4 4 5 4 13 40 35 15 12
4 7 11 18 6 8 3 4 4 -1 1 -1 4 6 4 6 18 45 27 13 20 27
Height
5732 5729 5725 5722 5719 5715 5712 5707 5703 5699 5694 5688 5683 5676 5669 5661 5653 5644 5635 5626 5616 5607
5723 5720 5717 5714 5711 5707 5703 5698 5693 5688 5682 5676 5670 5663 5655 5646 5637 5628 5618 5609 5600 5590
5715 5712 5710 5706 5703 5698 5694 5689 5683 5677 5670 5663 5656 5648 5639 5630 5621 5611 5602 5592 5582 5572
5707 5705 5702 5698 5694 5689 5683 5678 5672 5665 5658 5650 5641 5632 5623 5614 5605 5596 5586 5575 5564 5553
5701 5698 5693 5689 5684 5679 5673 5667 5660 5652 5644 5635 5626 5616 5608 5599 5590 5580 5569 5557 5544 5531
5693 5689 5684 5679 5674 5669 5662 5654 5646 5638 5629 5620 5610 5602 5593 5584 5574 5562 5549 5535 5522 5508
5683 5679 5674 5669 5663 5657 5650 5641 5633 5623 5613 5604 5595 5586 5577 5568 5556 5543 5530 5515 5498 5481
5674 5669 5664 5659 5652 5644 5636 5628 5618 5608 5598 5589 5580 5571 5560 5549 5538 5524 5509 5491 5473 5454
5663 5659 5653 5647 5640 5632 5622 5613 5603 5593 5584 5575 5564 5554 5542 5530 5517 5502 5484 5467 5449 5428
5653 5648 5642 5635 5627 5619 5609 5599 5589 5580 5570 5560 5548 5537 5524 5510 5496 5479 5459 5440 5421 5403
5642 5636 5629 5622 5614 5605 5595 5585 5577 5567 5555 5544 5531 5517 5503 5489 5472 5454 5434 5414 5395 5378
5631 5624 5617 5609 5600 5591 5582 5572 5563 5552 5541 5528 5514 5498 5481 5464 5448 5430 5410 5390 5371 5356
5620 5613 5605 5596 5587 5578 5569 5560 5550 5539 5525 5510 5494 5476 5458 5438 5419 5404 5385 5368 5351 5336
5608 5600 5592 5582 5574 5567 5558 5548 5537 5526 5510 5493 5474 5455 5436 5415 5394 5373 5360 5347 5333 5316